EW6800 Weather Reports


Display with metric or nautical units.
time (UTC)temp
F
wind
direction
speed
MPH
gust
MPH
rain 1hr
in
rain 24hr
in
rain mn
in
humidity
%
barometer
mb
20260509175042 59 324 2.0 5.0 0.00 0.00 0.00 79 1016.4
20260509174551 59 324 2.0 5.0 0.00 0.00 0.00 79 1016.4
20260509174042 58 319 2.0 4.0 0.00 0.00 0.00 79 1016.4
20260509173543 58 303 2.0 4.0 0.00 0.00 0.00 79 1016.3
20260509173054 58 323 1.0 3.0 0.00 0.00 0.00 80 1016.3
20260509172544 57 323 2.0 3.0 0.00 0.00 0.00 81 1016.2
20260509172043 56 323 1.0 3.0 0.00 0.00 0.00 81 1016.3
20260509171549 56 323 1.0 4.0 0.00 0.00 0.00 83 1016.2
20260509171047 55 323 1.0 4.0 0.00 0.00 0.00 83 1016.1
20260509170546 55 323 2.0 4.0 0.00 0.00 0.00 84 1016.2
20260509170058 54 323 2.0 4.0 0.00 0.00 0.00 85 1016.1
20260509165543 53 323 2.0 4.0 0.00 0.00 0.00 85 1016.2
20260509165043 53 323 2.0 4.0 0.00 0.00 0.00 86 1016.3
20260509164551 52 323 2.0 4.0 0.00 0.00 0.00 86 1016.3
20260509164047 52 323 2.0 4.0 0.00 0.00 0.00 86 1016.2
20260509163545 52 323 2.0 4.0 0.00 0.00 0.00 86 1016.3
20260509163109 51 323 2.0 4.0 0.00 0.00 0.00 86 1016.2
20260509162546 51 323 2.0 4.0 0.00 0.00 0.00 86 1016.2
20260509162044 51 323 3.0 5.0 0.00 0.00 0.00 85 1016.2
20260509161550 51 323 3.0 5.0 0.00 0.00 0.00 84 1016.2
20260509161046 52 323 2.0 4.0 0.00 0.00 0.00 84 1016.2
20260509160544 52 315 2.0 4.0 0.00 0.00 0.00 83 1016.3
20260509160051 52 313 1.0 3.0 0.00 0.00 0.00 82 1016.3
20260509155543 52 313 2.0 3.0 0.00 0.00 0.00 81 1016.1
20260509155043 53 313 1.0 3.0 0.00 0.00 0.00 79 1016.1
20260509154554 54 313 1.0 3.0 0.00 0.00 0.00 77 1016.2
20260509154048 55 313 0.0 3.0 0.00 0.00 0.00 74 1016.2
20260509153544 56 0 1.0 3.0 0.00 0.00 0.00 72 1016.1
20260509153044 57 311 2.0 3.0 0.00 0.00 0.00 67 1016.2
20260509152544 59 0 0.0 2.0 0.00 0.00 0.00 68 1016.0
20260509152045 59 0 0.0 2.0 0.00 0.00 0.00 69 1016.0
20260509151557 58 0 0.0 2.0 0.00 0.00 0.00 69 1016.0
20260509151044 58 0 0.0 1.0 0.00 0.00 0.00 72 1015.9
20260509150545 57 0 0.0 1.0 0.00 0.00 0.00 73 1015.8
20260509150054 56 0 0.0 0.0 0.00 0.00 0.00 70 1015.8
20260509145544 55 0 0.0 2.0 0.00 0.01 0.00 71 1015.9
20260509145044 55 0 0.0 3.0 0.00 0.01 0.00 70 1015.7
20260509144553 54 309 0.0 3.0 0.00 0.01 0.00 70 1015.8
20260509144043 53 309 2.0 3.0 0.00 0.01 0.00 70 1015.7
20260509143543 52 309 2.0 3.0 0.00 0.01 0.00 75 1015.7
20260509143055 52 309 2.0 5.0 0.00 0.01 0.00 74 1015.6
20260509142543 52 309 2.0 5.0 0.00 0.01 0.00 74 1015.7
20260509142047 52 309 3.0 5.0 0.00 0.01 0.00 75 1015.7
20260509141559 53 302 3.0 5.0 0.00 0.01 0.00 73 1015.6
20260509141048 53 302 3.0 5.0 0.00 0.01 0.00 71 1015.4
20260509140544 55 306 3.0 5.0 0.00 0.01 0.00 67 1015.4
20260509135544 59 317 2.0 4.0 0.00 0.01 0.00 57 1015.3
20260509135044 60 318 2.0 6.0 0.00 0.01 0.00 51 1015.4
20260509134545 60 318 3.0 7.0 0.00 0.01 0.00 52 1015.3
20260509134043 60 313 4.0 7.0 0.00 0.01 0.00 53 1015.3
20260509133544 59 313 4.0 8.0 0.00 0.01 0.00 54 1015.3
20260509133051 58 318 4.0 8.0 0.00 0.01 0.00 56 1015.2
20260509132544 57 315 4.0 8.0 0.00 0.01 0.00 57 1015.3
20260509132043 57 315 4.0 8.0 0.00 0.01 0.00 58 1015.2
20260509131551 56 315 4.0 8.0 0.00 0.01 0.00 58 1015.2
20260509131043 54 313 5.0 8.0 0.00 0.01 0.00 62 1015.3
20260509130546 53 312 5.0 8.0 0.00 0.01 0.00 65 1015.3
20260509125545 54 313 3.0 6.0 0.00 0.01 0.00 68 1015.3
20260509125044 53 316 4.0 6.0 0.00 0.01 0.00 68 1015.2
20260509124552 51 311 4.0 5.0 0.00 0.01 0.00 72 1015.1
20260509124044 50 302 2.0 5.0 0.00 0.01 0.00 76 1015.1
20260509123544 50 298 3.0 5.0 0.00 0.01 0.00 78 1015.2
20260509123058 50 298 3.0 5.0 0.00 0.01 0.00 78 1015.2
20260509122543 51 309 3.0 4.0 0.00 0.01 0.00 76 1015.2
20260509122045 51 309 3.0 4.0 0.00 0.01 0.00 75 1015.2
20260509121554 52 309 3.0 5.0 0.00 0.01 0.00 73 1015.2
20260509121048 52 309 3.0 5.0 0.00 0.01 0.00 71 1015.2
20260509120544 53 308 3.0 5.0 0.00 0.01 0.00 70 1015.2
20260509120050 54 309 0.0 0.0 0.00 0.01 0.00 66 1015.3
20260509115543 55 0 0.0 0.0 0.00 0.01 0.00 64 1015.4
20260509115043 55 0 0.0 0.0 0.00 0.01 0.00 62 1015.4
20260509114550 56 0 0.0 0.0 0.00 0.01 0.00 61 1015.5
20260509114043 56 0 0.0 0.0 0.00 0.01 0.00 62 1015.4
20260509113543 56 0 0.0 0.0 0.00 0.01 0.00 62 1015.4
20260509113106 56 0 0.0 0.0 0.00 0.01 0.00 62 1015.4
20260509112545 56 0 0.0 0.0 0.00 0.01 0.00 61 1015.6
20260509112044 56 0 0.0 0.0 0.00 0.01 0.00 61 1015.5
20260509111548 55 0 0.0 3.0 0.00 0.01 0.00 62 1015.4
20260509111045 55 0 0.0 3.0 0.00 0.01 0.00 63 1015.4
20260509110547 54 23 2.0 3.0 0.00 0.01 0.00 64 1015.4
20260509110048 54 23 1.0 3.0 0.00 0.01 0.00 66 1015.4
20260509105543 53 0 0.0 2.0 0.00 0.01 0.00 68 1015.4
20260509105045 52 0 0.0 3.0 0.00 0.01 0.00 70 1015.4
20260509104556 51 314 1.0 6.0 0.00 0.01 0.00 70 1015.4
20260509104045 51 314 2.0 7.0 0.00 0.01 0.00 73 1015.6
20260509103543 51 304 4.0 7.0 0.00 0.01 0.00 74 1015.5
20260509103057 54 296 3.0 7.0 0.00 0.01 0.00 70 1015.6
20260509102544 56 321 3.0 4.0 0.00 0.01 0.00 63 1015.6
20260509102045 56 338 2.0 3.0 0.00 0.01 0.00 58 1015.6
20260509101549 56 340 0.0 2.0 0.00 0.01 0.00 59 1015.6
20260509101044 55 0 0.0 0.0 0.00 0.01 0.00 63 1015.7
20260509100544 55 0 0.0 0.0 0.00 0.01 0.00 64 1015.6
20260509100219 54 0 0.0 0.0 0.00 0.01 0.00 66 1015.6
20260509095544 53 0 0.0 0.0 0.00 0.01 0.00 67 1015.7
20260509095044 52 0 0.0 0.0 0.00 0.01 0.00 68 1015.7
20260509094554 52 0 0.0 2.0 0.00 0.01 0.00 70 1015.7
20260509094043 51 0 0.0 5.0 0.00 0.01 0.00 71 1015.8
20260509093543 51 0 0.0 5.0 0.00 0.01 0.00 71 1015.8
20260509093052 52 331 3.0 4.0 0.00 0.01 0.00 75 1015.9
20260509092547 53 316 2.0 4.0 0.00 0.01 0.00 71 1015.9
20260509092043 54 0 0.0 3.0 0.00 0.01 0.00 62 1015.9
20260509091603 53 0 0.0 5.0 0.00 0.01 0.00 62 1016.0
20260509091043 53 311 2.0 5.0 0.00 0.01 0.00 66 1016.0
20260509090543 53 311 3.0 5.0 0.00 0.01 0.00 67 1016.0
20260509090058 53 316 3.0 6.0 0.00 0.01 0.00 69 1016.0
20260509085543 54 316 2.0 8.0 0.00 0.01 0.00 67 1015.9
20260509085048 54 316 5.0 8.0 0.00 0.01 0.00 64 1015.9
20260509084550 55 316 4.0 8.0 0.00 0.01 0.00 64 1015.9
20260509084043 55 310 3.0 9.0 0.00 0.01 0.00 64 1016.0
20260509083543 55 316 4.0 9.0 0.00 0.01 0.00 65 1016.0
20260509083050 54 314 4.0 9.0 0.00 0.01 0.00 65 1016.1
20260509082544 54 331 4.0 8.0 0.00 0.01 0.00 66 1016.1
20260509082044 53 313 4.0 6.0 0.00 0.01 0.00 69 1016.1
20260509081559 51 315 4.0 6.0 0.00 0.01 0.00 74 1016.1
20260509081044 50 321 4.0 6.0 0.00 0.01 0.00 80 1016.2
20260509080543 49 320 4.0 8.0 0.00 0.01 0.00 81 1016.2
20260509080050 48 319 3.0 10.0 0.00 0.01 0.00 85 1016.2
20260509075543 48 319 5.0 10.0 0.00 0.01 0.00 85 1016.3
20260509075044 49 313 5.0 10.0 0.00 0.01 0.00 83 1016.3
20260509074549 50 317 4.0 8.0 0.00 0.01 0.00 80 1016.3
20260509074044 51 319 4.0 8.0 0.00 0.01 0.00 77 1016.3
20260509073544 52 312 3.0 8.0 0.00 0.01 0.00 75 1016.4
20260509073049 51 317 4.0 9.0 0.00 0.01 0.00 76 1016.4
20260509072543 50 312 4.0 9.0 0.00 0.01 0.00 81 1016.4
20260509072044 48 308 5.0 8.0 0.00 0.01 0.00 84 1016.4
20260509071552 48 321 4.0 8.0 0.00 0.01 0.00 86 1016.4
20260509071041 49 309 4.0 8.0 0.00 0.01 0.00 85 1016.5
20260509070544 49 313 4.0 9.0 0.00 0.01 0.00 84 1016.5
20260509070051 48 316 6.0 10.0 0.00 0.01 0.00 86 1016.5
20260509065543 48 319 6.0 11.0 0.00 0.01 0.01 86 1016.6
20260509065043 49 307 7.0 11.0 0.00 0.01 0.01 83 1016.6
20260509064550 50 306 8.0 11.0 0.00 0.01 0.01 79 1016.6
20260509064043 50 303 6.0 10.0 0.00 0.01 0.01 78 1016.7
20260509063544 50 311 4.0 8.0 0.00 0.01 0.01 81 1016.7
20260509063056 49 317 5.0 9.0 0.00 0.01 0.01 82 1016.6
20260509062545 50 314 6.0 10.0 0.00 0.01 0.01 82 1016.7
20260509062044 50 309 6.0 10.0 0.00 0.01 0.01 80 1016.8
20260509061606 52 306 6.0 10.0 0.00 0.01 0.01 78 1016.7
20260509061043 53 306 4.0 8.0 0.00 0.01 0.01 74 1016.8
20260509060541 54 315 5.0 8.0 0.00 0.01 0.01 70 1016.8
20260509060053 53 312 5.0 9.0 0.00 0.01 0.01 72 1016.8
20260509055546 51 314 5.0 9.0 0.00 0.01 0.01 81 1016.8
20260509055043 49 323 5.0 9.0 0.00 0.01 0.01 90 1016.9
20260509054558 48 313 4.0 7.0 0.00 0.01 0.01 95 1017.0
20260509054043 47 315 5.0 7.0 0.00 0.01 0.01 95 1017.0
20260509053544 46 320 4.0 6.0 0.00 0.01 0.01 95 1017.0
20260509053058 46 312 2.0 7.0 0.00 0.01 0.01 95 1017.0
20260509052543 46 315 3.0 8.0 0.00 0.01 0.01 95 1017.1
20260509052046 46 296 4.0 8.0 0.00 0.01 0.01 95 1017.1
20260509051553 46 296 4.0 8.0 0.00 0.01 0.01 95 1017.1
20260509051049 46 300 4.0 8.0 0.00 0.01 0.01 95 1017.1
20260509050544 46 297 4.0 7.0 0.00 0.01 0.01 95 1017.1
20260509050052 47 302 3.0 8.0 0.00 0.01 0.01 95 1017.0
20260509045544 47 304 4.0 8.0 0.00 0.01 0.01 95 1017.0
20260509045044 47 308 5.0 8.0 0.00 0.01 0.01 95 1016.9
20260509044556 47 309 5.0 8.0 0.00 0.01 0.01 95 1016.9
20260509044045 47 321 5.0 8.0 0.00 0.01 0.01 95 1016.9
20260509043547 47 306 4.0 8.0 0.00 0.01 0.01 95 1017.0
20260509043059 47 306 4.0 8.0 0.00 0.01 0.01 95 1016.9
20260509042543 47 304 5.0 9.0 0.00 0.01 0.01 95 1016.8
20260509042046 47 305 5.0 9.0 0.00 0.01 0.01 95 1016.8
20260509041551 47 302 5.0 9.0 0.00 0.01 0.01 94 1016.8
20260509041044 48 314 4.0 8.0 0.00 0.01 0.01 94 1016.8
20260509040543 48 309 4.0 8.0 0.00 0.01 0.01 95 1016.8
20260509040051 48 304 5.0 8.0 0.00 0.01 0.01 94 1016.8
20260509035543 48 302 4.0 8.0 0.00 0.01 0.01 94 1016.8
20260509035042 48 312 4.0 8.0 0.00 0.01 0.01 94 1016.7
20260509034602 48 313 4.0 8.0 0.00 0.01 0.01 94 1016.6
20260509034044 48 296 4.0 8.0 0.00 0.01 0.01 94 1016.6
20260509033545 48 306 4.0 8.0 0.00 0.01 0.01 94 1016.7
20260509033055 48 309 4.0 7.0 0.00 0.01 0.01 94 1016.6
20260509032543 49 323 4.0 8.0 0.00 0.01 0.01 93 1016.7
20260509032047 49 294 4.0 8.0 0.00 0.01 0.01 93 1016.6
20260509031553 49 304 3.0 7.0 0.00 0.01 0.01 93 1016.7
20260509031043 49 304 3.0 8.0 0.00 0.01 0.01 93 1016.6
20260509030543 49 309 3.0 8.0 0.00 0.01 0.01 92 1016.6
20260509030053 50 315 4.0 8.0 0.00 0.01 0.01 92 1016.6
20260509025543 50 311 4.0 7.0 0.00 0.01 0.01 91 1016.6
20260509025045 51 301 3.0 6.0 0.00 0.01 0.01 90 1016.6
20260509024553 51 306 3.0 7.0 0.00 0.01 0.01 90 1016.6
20260509024044 52 313 4.0 7.0 0.00 0.01 0.01 90 1016.6
20260509023543 52 304 3.0 7.0 0.00 0.01 0.01 89 1016.5
20260509023055 53 311 3.0 7.0 0.00 0.01 0.01 89 1016.6
20260509022545 53 300 3.0 5.0 0.00 0.01 0.01 89 1016.6
20260509022045 53 316 3.0 6.0 0.00 0.01 0.01 88 1016.6
20260509021554 53 312 3.0 7.0 0.00 0.01 0.01 88 1016.5
20260509021133 54 307 3.0 7.0 0.00 0.01 0.01 87 1016.6
20260509020544 54 310 3.0 7.0 0.00 0.01 0.01 86 1016.6
20260509020054 54 304 3.0 7.0 0.00 0.01 0.01 86 1016.6
20260509015543 55 315 3.0 7.0 0.00 0.01 0.01 86 1016.7
20260509015043 55 304 3.0 8.0 0.00 0.01 0.01 85 1016.6
20260509014553 56 300 4.0 8.0 0.00 0.01 0.01 84 1016.7
20260509014043 56 303 4.0 9.0 0.00 0.01 0.01 83 1016.7
20260509013548 57 304 5.0 9.0 0.00 0.01 0.01 83 1016.6
20260509013052 57 302 5.0 8.0 0.00 0.01 0.01 82 1016.6
20260509012545 57 300 4.0 7.0 0.00 0.01 0.01 82 1016.7
20260509012046 58 307 3.0 9.0 0.00 0.01 0.01 82 1016.7
20260509011553 58 298 5.0 9.0 0.00 0.01 0.01 82 1016.7
20260509011044 58 300 5.0 10.0 0.00 0.01 0.01 82 1016.8
20260509010543 58 306 5.0 10.0 0.00 0.01 0.01 82 1016.8
20260509010051 58 296 6.0 10.0 0.00 0.01 0.01 82 1016.8
20260509005543 58 300 5.0 10.0 0.00 0.01 0.01 82 1016.8
20260509005044 58 303 6.0 9.0 0.00 0.01 0.01 82 1016.7
20260509004549 58 306 4.0 9.0 0.00 0.01 0.01 82 1016.8
20260509004044 58 297 5.0 10.0 0.00 0.01 0.01 82 1016.9
20260509003544 58 304 4.0 10.0 0.00 0.01 0.01 82 1017.0
20260509003048 58 296 6.0 10.0 0.00 0.01 0.01 82 1016.9
20260509002543 58 302 7.0 11.0 0.00 0.01 0.01 82 1017.0
20260509002043 58 308 6.0 11.0 0.00 0.01 0.01 81 1017.0
20260509001549 58 298 6.0 11.0 0.00 0.01 0.01 80 1017.1
20260509001044 59 294 7.0 10.0 0.00 0.01 0.01 80 1017.0
20260509000543 59 302 5.0 11.0 0.00 0.01 0.01 79 1017.1
20260509000052 60 308 6.0 11.0 0.00 0.01 0.01 78 1017.0
20260508235543 60 313 8.0 11.0 0.00 0.01 0.01 78 1017.0
20260508235044 60 298 8.0 11.0 0.00 0.01 0.01 78 1017.1
20260508234556 61 315 8.0 11.0 0.00 0.01 0.01 77 1017.1
20260508234045 61 311 8.0 11.0 0.00 0.01 0.01 77 1017.2
20260508233543 61 304 7.0 10.0 0.00 0.01 0.01 77 1017.2
20260508233054 62 296 6.0 9.0 0.00 0.01 0.01 76 1017.2
20260508232546 62 300 6.0 10.0 0.00 0.01 0.01 76 1017.3
20260508232043 62 309 6.0 10.0 0.00 0.01 0.01 76 1017.3
20260508231635 62 306 7.0 10.0 0.00 0.01 0.01 76 1017.3
20260508231044 62 322 6.0 9.0 0.00 0.01 0.01 76 1017.3
20260508230544 62 323 6.0 9.0 0.00 0.01 0.01 77 1017.4
20260508230059 62 306 6.0 11.0 0.00 0.01 0.01 77 1017.4
20260508225543 61 300 6.0 11.0 0.00 0.01 0.01 77 1017.5
20260508225045 61 296 6.0 11.0 0.00 0.01 0.01 77 1017.5
20260508224550 61 307 6.0 11.0 0.00 0.01 0.01 77 1017.6
20260508224043 62 305 7.0 12.0 0.00 0.01 0.01 76 1017.6
20260508223544 62 298 8.0 12.0 0.00 0.01 0.01 76 1017.7
20260508223049 62 307 6.0 10.0 0.00 0.01 0.01 76 1017.7
20260508222544 62 304 6.0 10.0 0.00 0.01 0.01 78 1017.8
20260508222044 62 292 7.0 10.0 0.00 0.01 0.01 77 1017.9
20260508221550 62 284 6.0 9.0 0.00 0.01 0.01 77 1018.0
20260508221044 62 303 5.0 9.0 0.00 0.01 0.01 77 1018.0
20260508220544 62 291 4.0 8.0 0.00 0.01 0.01 77 1018.0
20260508220048 62 296 5.0 8.0 0.00 0.01 0.01 78 1018.1
20260508215543 61 290 4.0 9.0 0.00 0.01 0.01 78 1018.1
20260508215045 61 298 5.0 9.0 0.00 0.01 0.01 78 1018.2
20260508214618 61 306 5.0 9.0 0.00 0.01 0.01 79 1018.2
20260508214047 61 306 5.0 9.0 0.00 0.01 0.01 80 1018.3
20260508213543 61 296 5.0 8.0 0.00 0.01 0.01 79 1018.4
20260508213053 61 305 4.0 9.0 0.00 0.01 0.01 79 1018.3
20260508212543 60 294 4.0 9.0 0.00 0.01 0.01 80 1018.4
20260508212046 60 312 5.0 10.0 0.00 0.01 0.01 80 1018.5
20260508211550 60 296 5.0 10.0 0.00 0.01 0.01 79 1018.5
20260508211044 60 313 7.0 10.0 0.00 0.01 0.01 80 1018.5
20260508210544 60 319 5.0 9.0 0.00 0.01 0.01 80 1018.6
20260508210054 61 306 5.0 9.0 0.00 0.01 0.01 80 1018.6
20260508205543 61 303 5.0 9.0 0.00 0.01 0.01 81 1018.5
20260508205044 60 295 4.0 8.0 0.00 0.01 0.01 81 1018.7
20260508204549 60 299 4.0 8.0 0.00 0.01 0.01 81 1018.7
20260508204043 60 331 3.0 8.0 0.00 0.01 0.01 82 1018.8
20260508203544 60 300 4.0 8.0 0.00 0.01 0.01 83 1018.7
20260508203106 59 313 4.0 8.0 0.00 0.01 0.01 83 1018.7
20260508202544 59 300 4.0 8.0 0.00 0.01 0.01 84 1018.7
20260508202043 58 312 4.0 7.0 0.00 0.01 0.01 85 1018.8
20260508201549 58 331 3.0 9.0 0.00 0.01 0.01 85 1018.7
20260508201043 57 304 4.0 9.0 0.00 0.01 0.01 85 1018.7
20260508200543 57 306 5.0 9.0 0.00 0.01 0.01 85 1018.8
20260508200049 57 300 5.0 10.0 0.00 0.01 0.01 85 1018.8
20260508195543 57 300 6.0 10.0 0.00 0.01 0.01 86 1018.8
20260508195044 57 296 6.0 10.0 0.00 0.01 0.01 85 1018.9
20260508194554 56 296 6.0 10.0 0.00 0.01 0.01 85 1018.8
20260508194043 56 308 5.0 9.0 0.00 0.01 0.01 86 1018.8
20260508193543 56 307 5.0 9.0 0.00 0.01 0.01 87 1018.9
20260508193110 56 299 5.0 9.0 0.00 0.01 0.01 87 1018.9
20260508192544 56 305 4.0 7.0 0.00 0.01 0.01 88 1018.8
20260508192044 55 301 3.0 8.0 0.00 0.01 0.01 89 1018.9
20260508191549 55 306 4.0 9.0 0.00 0.01 0.01 89 1018.8
20260508191043 55 306 4.0 9.0 0.00 0.01 0.01 89 1018.9
20260508190545 55 298 4.0 9.0 0.00 0.01 0.01 90 1019.1
20260508190047 54 310 5.0 10.0 0.00 0.01 0.01 90 1019.0
20260508185544 54 298 5.0 10.0 0.00 0.01 0.01 91 1019.1
20260508185044 54 300 6.0 10.0 0.00 0.01 0.01 92 1019.2
20260508184546 54 325 6.0 10.0 0.00 0.01 0.01 93 1019.2
20260508184045 54 308 7.0 10.0 0.00 0.01 0.01 94 1019.1
20260508183544 53 318 6.0 10.0 0.00 0.01 0.01 95 1019.2
20260508183059 53 313 5.0 9.0 0.00 0.01 0.01 95 1019.2
20260508182544 53 309 5.0 10.0 0.00 0.01 0.01 96 1019.1
20260508182044 53 321 5.0 10.0 0.00 0.01 0.01 96 1019.2
20260508181553 52 311 6.0 10.0 0.00 0.01 0.01 96 1019.2
20260508181044 52 305 6.0 9.0 0.00 0.01 0.01 96 1019.3
20260508180545 52 299 5.0 9.0 0.00 0.01 0.01 97 1019.2
20260508180058 51 308 5.0 8.0 0.00 0.01 0.01 96 1019.3
20260508175544 51 310 4.0 9.0 0.00 0.01 0.01 97 1019.3